UAL5583 KSAN-KLAS

Flight info

Callsign UAL5583
Flight time N/A
Altitude 29000
Route PADRZ2 CHKNN SEBBY YELAH MISEN RNDRZ4
Aircraft A20N/M-SDE2E3FGHIRWXY/LB1

Departure

Time 2026-05-06 04:47
Airport San Diego International Airport (KSAN)

Arrival

Time N/A
Airport Harry Reid International Airport (KLAS)
Time Latitude Longitude Altitude Speed Heading
2026-05-06 04:30 32.73315 -117.19679 20 ft 0 kts 141°
2026-05-06 04:36 32.73316 -117.19681 20 ft 1 kts 140°
2026-05-06 04:37 32.73329 -117.19695 21 ft 3 kts 117°
2026-05-06 04:37 32.73333 -117.19712 20 ft 3 kts 65°
2026-05-06 04:37 32.73324 -117.19725 22 ft 2 kts 20°
2026-05-06 04:37 32.73318 -117.19728 20 ft 0 kts 19°
2026-05-06 04:41 32.73320 -117.19726 20 ft 3 kts 22°
2026-05-06 04:41 32.73364 -117.19705 21 ft 8 kts 21°
2026-05-06 04:41 32.73371 -117.19702 21 ft 1 kts 17°
2026-05-06 04:41 32.73412 -117.19680 23 ft 9 kts 52°
2026-05-06 04:42 32.73407 -117.19595 23 ft 13 kts 107°
2026-05-06 04:42 32.73380 -117.19485 24 ft 16 kts 106°
2026-05-06 04:42 32.73346 -117.19346 21 ft 20 kts 106°
2026-05-06 04:42 32.73305 -117.19178 20 ft 20 kts 106°
2026-05-06 04:43 32.73283 -117.19089 23 ft 19 kts 106°
2026-05-06 04:43 32.73244 -117.18927 25 ft 21 kts 106°
2026-05-06 04:43 32.73203 -117.18753 32 ft 23 kts 105°
2026-05-06 04:43 32.73158 -117.18567 27 ft 24 kts 106°
2026-05-06 04:44 32.73110 -117.18370 26 ft 23 kts 106°
2026-05-06 04:44 32.73068 -117.18196 25 ft 24 kts 106°
2026-05-06 04:44 32.73023 -117.18016 23 ft 23 kts 106°
2026-05-06 04:44 32.72985 -117.17855 24 ft 21 kts 106°
2026-05-06 04:45 32.72952 -117.17720 23 ft 7 kts 105°
2026-05-06 04:45 32.72954 -117.17665 23 ft 7 kts 69°
2026-05-06 04:45 32.72975 -117.17604 25 ft 13 kts 68°
2026-05-06 04:45 32.73019 -117.17569 27 ft 7 kts 303°
2026-05-06 04:46 32.73058 -117.17724 22 ft 46 kts 286°
2026-05-06 04:46 32.73213 -117.18365 26 ft 111 kts 285°
2026-05-06 04:46 32.73471 -117.19430 38 ft 156 kts 287°
2026-05-06 04:46 32.73785 -117.20722 539 ft 165 kts 287°
2026-05-06 04:47 32.74166 -117.22010 1208 ft 167 kts 296°
2026-05-06 04:47 32.74791 -117.23189 1893 ft 173 kts 305°
2026-05-06 04:47 32.75553 -117.24421 2210 ft 196 kts 306°
2026-05-06 04:47 32.76123 -117.25331 2381 ft 215 kts 306°
2026-05-06 04:48 32.77365 -117.27395 3005 ft 246 kts 304°
2026-05-06 04:48 32.78358 -117.29097 3866 ft 252 kts 304°
2026-05-06 04:48 32.79022 -117.30246 4489 ft 256 kts 304°
2026-05-06 04:48 32.80377 -117.32568 5740 ft 260 kts 308°
2026-05-06 04:49 32.81102 -117.33720 6322 ft 264 kts 309°
2026-05-06 04:49 32.82246 -117.35480 7140 ft 270 kts 309°
2026-05-06 04:49 32.83797 -117.37836 8236 ft 276 kts 309°
2026-05-06 04:49 32.84587 -117.39041 8788 ft 279 kts 309°
2026-05-06 04:50 32.85788 -117.40884 9619 ft 283 kts 309°
2026-05-06 04:50 32.87010 -117.42769 10282 ft 294 kts 309°
2026-05-06 04:50 32.88314 -117.44780 10521 ft 318 kts 309°
2026-05-06 04:50 32.89699 -117.46917 10694 ft 341 kts 309°
2026-05-06 04:51 32.91185 -117.49221 11004 ft 357 kts 309°
2026-05-06 04:51 32.92707 -117.51592 11613 ft 363 kts 309°
2026-05-06 04:51 32.94249 -117.53997 12279 ft 367 kts 309°
2026-05-06 04:51 32.95787 -117.56399 12927 ft 371 kts 309°
2026-05-06 04:52 32.97361 -117.58861 13575 ft 375 kts 308°
2026-05-06 04:52 32.98953 -117.61354 14209 ft 379 kts 309°
2026-05-06 04:52 33.00562 -117.63872 14811 ft 382 kts 309°
2026-05-06 04:52 33.02164 -117.66377 15385 ft 386 kts 309°
2026-05-06 04:53 33.03898 -117.68835 15961 ft 387 kts 319°
2026-05-06 04:53 33.06116 -117.70659 16559 ft 388 kts 336°
2026-05-06 04:53 33.08706 -117.71576 17165 ft 390 kts 354°
2026-05-06 04:53 33.11389 -117.71477 17769 ft 392 kts 12°
2026-05-06 04:54 33.13965 -117.70379 18380 ft 395 kts 26°
2026-05-06 04:54 33.16434 -117.68893 18946 ft 398 kts 27°
2026-05-06 04:54 33.18911 -117.67389 19503 ft 401 kts 27°
2026-05-06 04:54 33.21416 -117.65862 20053 ft 404 kts 27°
2026-05-06 04:55 33.23896 -117.64348 20581 ft 407 kts 27°
2026-05-06 04:55 33.26424 -117.62808 21127 ft 408 kts 27°
2026-05-06 04:55 33.28967 -117.61267 21664 ft 409 kts 27°
2026-05-06 04:55 33.31515 -117.59726 22153 ft 411 kts 27°
2026-05-06 04:56 33.34082 -117.58174 22617 ft 413 kts 27°
2026-05-06 04:56 33.36626 -117.56631 23067 ft 415 kts 27°
2026-05-06 04:56 33.39217 -117.55058 23512 ft 417 kts 27°
2026-05-06 04:56 33.41818 -117.53479 23893 ft 419 kts 27°
2026-05-06 04:57 33.44430 -117.51892 24231 ft 422 kts 27°
2026-05-06 04:57 33.47065 -117.50292 24559 ft 424 kts 27°
2026-05-06 04:57 33.49669 -117.48706 24878 ft 427 kts 27°
2026-05-06 04:57 33.52334 -117.47081 25204 ft 429 kts 27°
2026-05-06 04:58 33.54995 -117.45458 25621 ft 428 kts 28°
2026-05-06 04:58 33.57661 -117.43831 26026 ft 428 kts 28°
2026-05-06 04:58 33.60290 -117.42223 26385 ft 430 kts 28°
2026-05-06 04:58 33.62966 -117.40584 26725 ft 431 kts 28°
2026-05-06 04:59 33.65646 -117.38943 27053 ft 433 kts 28°
2026-05-06 04:59 33.68341 -117.37293 27410 ft 434 kts 28°